Regional Weather Roundup
Issued by NWS Glasgow, MT

Home | Current Version | Previous Version | Text Only | Print | Product List | Glossary On
Versions: 1 2 3 4 5 6 7 8 9 10 11 12 13 14 15 16 17 18 19 20 21 22 23 24 25 26 27 28 29 30 31 32 33 34 35 36 37 38 39 40 41 42 43 44 45 46 47 48 49 50
000
ASUS45 KGGW 260615
RWRGGW
HOURLY REGIONAL WEATHER ROUNDUP FOR NORTHEAST MONTANA
NATIONAL WEATHER SERVICE GLASGOW MONTANA
1200 AM MDT MON JUN 26 2017

NOTE: "FAIR" INDICATES FEW OR NO CLOUDS BELOW 12,000 FEET WITH NO
SIGNIFICANT WEATHER AND/OR OBSTRUCTIONS TO VISISBILITY.

NORTHEAST MONTANA


CITY           SKY/WX    TMP DP  RH WIND       PRES   REMARKS
GLASGOW        CLEAR     59  37  44 E12       30.18S
6HR MIN TEMP:  59; 6HR MAX TEMP:  80;

PLENTYWOOD       N/A     51  39  63 NE8         N/A
WOLF POINT     CLEAR     55  39  54 E6        30.21R
JORDAN           N/A     56  32  40 VRB5      30.18F
WINNETT          N/A     52  35  52 S3          N/A
SIDNEY         CLEAR     55  42  61 N3        30.22S
GLENDIVE       CLEAR     57  41  55 E7        30.22S
MALTA            N/A     55  41  59 E1          N/A

FORT PECK REPORTS


CITY           SKY/WX    TMP DP  RH WIND       PRES   REMARKS
FORT PECK        N/A     63  42  46 E13         N/A
THE PINES        N/A     64  43  46 CALM        N/A

SOUTHEAST MONTANA


CITY           SKY/WX    TMP DP  RH WIND       PRES   REMARKS
BILLINGS       CLEAR     68  32  26 SE5       30.20S
MILES CITY     CLEAR     62  31  31 SE6       30.19S
BAKER          CLEAR     50  33  52 SE8       30.25R
LIVINGSTON     CLEAR     61  39  44 SE8       30.22S

CENTRAL MONTANA


CITY           SKY/WX    TMP DP  RH WIND       PRES   REMARKS
HAVRE          CLEAR     60  42  51 E5        30.12F
LEWISTOWN      CLEAR     56  39  53 E3        30.20F
GREAT FALLS    CLEAR     63  39  41 E9        30.13F
CUT BANK       CLEAR     59  41  51 SE8       30.14S
HELENA         CLEAR     68  42  38 SE5       30.14S
BUTTE          CLEAR     64  38  38 CALM      30.24F
BOZEMAN        CLEAR     54  44  69 CALM      30.18F

WESTERN MONTANA


CITY           SKY/WX    TMP DP  RH WIND       PRES   REMARKS
MISSOULA       CLEAR     63  48  58 NE3       30.06S
KALISPELL      NOT AVBL

NORTH DAKOTA


CITY           SKY/WX    TMP DP  RH WIND       PRES   REMARKS
WILLISTON      CLEAR     50  43  77 CALM      30.24R
DICKINSON      CLEAR     48  38  68 E7        30.23S
MINOT          MOCLDY    52  41  66 SW3       30.24S
BISMARCK       CLEAR     50  44  80 CALM      30.26R

SOUTHERN SASKATCHEWAN


CITY           SKY/WX    TMP DP  RH WIND       PRES   REMARKS
REGINA         CLEAR     54  37  54 E5        30.25S
ESTEVAN        PTCLDY    46  43  87 E7        30.25S
SWIFT CURRENT  CLEAR     52  41  66 SE13      30.20F




USA.gov is the U.S. government's official web portal to all federal, state and local government web resources and services.